TimeCDT,TemperatureF,Dew PointF,Humidity,Sea Level PressureIn,VisibilityMPH,Wind Direction,Wind SpeedMPH,Gust SpeedMPH,PrecipitationIn,Events,Conditions,WindDirDegrees,DateUTC
12:55 AM,41.0,39.2,93,29.88,10.0,SSE,6.9,-,N/A,,Mostly Cloudy,150,2012-10-16 05:55:00
1:55 AM,41.7,38.3,88,29.87,10.0,SE,5.8,-,N/A,,Mostly Cloudy,140,2012-10-16 06:55:00
2:55 AM,41.0,39.2,93,29.83,10.0,SE,4.6,-,N/A,,Mostly Cloudy,130,2012-10-16 07:55:00
3:55 AM,42.8,39.2,87,29.81,10.0,SSE,3.5,-,N/A,,Mostly Cloudy,150,2012-10-16 08:55:00
4:55 AM,41.0,39.2,93,29.81,10.0,Calm,Calm,-,N/A,,Overcast,0,2012-10-16 09:55:00
5:55 AM,42.8,41.0,93,29.79,10.0,East,6.9,-,N/A,,Mostly Cloudy,100,2012-10-16 10:55:00
6:55 AM,44.6,41.0,87,29.77,10.0,SE,8.1,-,N/A,,Mostly Cloudy,130,2012-10-16 11:55:00
7:55 AM,48.2,41.0,76,29.75,10.0,SE,6.9,-,N/A,,Mostly Cloudy,140,2012-10-16 12:55:00
8:55 AM,50.0,42.8,76,29.73,10.0,SE,9.2,-,N/A,,Mostly Cloudy,140,2012-10-16 13:55:00
9:55 AM,55.4,42.8,63,29.70,10.0,SSE,17.3,21.9,N/A,,Mostly Cloudy,150,2012-10-16 14:55:00
10:55 AM,59.0,42.8,55,29.68,10.0,SSE,10.4,16.1,N/A,,Mostly Cloudy,150,2012-10-16 15:55:00
11:55 AM,64.4,44.6,49,29.65,10.0,SSE,12.7,-,N/A,,Mostly Cloudy,150,2012-10-16 16:55:00
12:55 PM,66.2,44.6,46,29.60,10.0,South,10.4,-,N/A,,Mostly Cloudy,170,2012-10-16 17:55:00
1:55 PM,68.0,46.4,46,29.56,10.0,SE,8.1,-,N/A,,Mostly Cloudy,130,2012-10-16 18:55:00
2:55 PM,69.8,46.4,43,29.54,10.0,South,9.2,-,N/A,,Mostly Cloudy,170,2012-10-16 19:55:00
3:55 PM,68.0,46.4,46,29.51,10.0,ESE,9.2,-,N/A,,Mostly Cloudy,120,2012-10-16 20:55:00
4:55 PM,68.0,48.2,49,29.48,10.0,SSE,12.7,20.7,N/A,,Mostly Cloudy,150,2012-10-16 21:55:00
5:55 PM,64.4,50.0,59,29.48,10.0,SE,9.2,-,N/A,,Scattered Clouds,140,2012-10-16 22:55:00
6:55 PM,57.2,48.2,72,29.47,10.0,ESE,8.1,-,N/A,,Partly Cloudy,110,2012-10-16 23:55:00
7:55 PM,55.4,48.2,77,29.48,10.0,Calm,Calm,-,N/A,,Mostly Cloudy,0,2012-10-17 00:55:00
8:55 PM,55.4,48.2,77,29.45,10.0,ESE,10.4,-,N/A,,Mostly Cloudy,120,2012-10-17 01:55:00
9:55 PM,53.6,48.2,82,29.45,10.0,Calm,Calm,-,N/A,,Partly Cloudy,0,2012-10-17 02:55:00
10:55 PM,46.4,44.6,93,29.44,10.0,SE,5.8,-,N/A,,Partly Cloudy,130,2012-10-17 03:55:00
11:55 PM,44.6,42.8,93,29.42,10.0,ESE,3.5,-,N/A,,Partly Cloudy,110,2012-10-17 04:55:00